THOR ABLESTAR DEB, 177

Orbit data source: Space-Track

THOR ABLESTAR DEB, 177 is space debris in LEO originally from a launch on Thu, 29 Jun 1961 UTC launched from the Air Force Eastern Test Range (AFETR). Debris objects in space refer to the collection of defunct objects orbiting the Earth. Examples of debris include non-operational satellites, rocket bodies, and fragments generated from explosions, collisions, or faulty payload assembly.

Loading next visibility...
Identifier
177, 1961-015BB
Orbit
LEO
Country
Flag of USUS
Related business
Manufacturer
Unknown
Mission
Spacecraft
Bus & Motor
Unknown
Mass
Unknown
Launch date (UTC)
1961-06-29 (64 years ago)
Launch vehicle
Unknown
Launch site
Air Force Eastern Test Range (AFETR)
Object type
Payload
Rocket body
Debris
Shape & HBR
Unknown shape, 0.2 m
Radar Cross Section
Medium (>0.1 m² and <1 m²)

Expand to show TLE details & history
Last TLE update: 15 hours ago

TLE from 15 hours ago
0 THOR ABLESTAR DEB
1 00177U 61015BB  25305.63925649  .00000567  00000-0  31640-3 0  9992
2 00177  66.6566  64.6887 0115167 250.9267 107.9322 14.14729485308979
Epoch: 2025-11-01T15:20Z
TLE epoch observation values (Epoch: 2025-11-01T15:20:31.760Z)
Latitude
-0.00004°
Longitude
153.3899°
Altitude
871.792 km
Speed
7.403 km/s
True Right ascension
04h 18m 45s
True Declination
0° 00' 00"
Sunlit
Object was in full shadow at epoch
Visualization orbit readout
Latitude
Unknown
Longitude
Unknown
Altitude
Unknown
Speed
Unknown
Apparent Right ascension
Unknown
Apparent Declination
Unknown
Sunlit
N/A
Visualization observer readout
Local Sidereal Time
01:48:34
Azimuth
Unknown
Elevation
Unknown
Doppler factor
Unknown
Orbital elements
Apogee altitude
924.772 km
Perigee altitude
758.476 km
Semi-major axis
7,219.761 km
Eccentricity
0.01152
Inclination
66.6566°
RAAN
64.6887°
Arg. of periapsis
250.9267°
True anomaly
109.18217°
Mean anomaly
107.9322°
Eccentric anomaly
108.55775°
Mean motion
3.53801 °/min
Orbital period
101.75 mins
BSTAR
0.0003164
Loading maneuver chart data...
Computing Atmospheric mass density...

Documentation

Showing up to 5 results
|